EZY29RU EGNT-LGRP

Flight info

Callsign EZY29RU
Flight time N/A
Altitude 35000
Route GIRLI P18 GASKO Y250 KEFTE UY250 MAMUL L603 DOLAS DCT NAVPI DCT DODEN DCT NEGIX DCT DINKU/N0450F370 M867 XERUM DCT BAVAX DCT RADIZ DCT GORPA DCT DEVUL DCT LIKVI DCT REMSO DCT MEDUX UM867 KOGAT DCT ERANA DCT TSL UN130 MES UN139 LURUS UL995 CODIC
Aircraft A320/M-SDE3FGHIRWY/LB1

Departure

Time 2026-04-28 10:42
Airport Newcastle International Airport (EGNT)

Arrival

Time N/A
Airport Rhodes International Airport "Diagoras" (LGRP)
Time Latitude Longitude Altitude Speed Heading
2026-04-28 10:20 55.03915 -1.70541 268 ft 0 kts 274°
2026-04-28 10:34 55.03914 -1.70532 267 ft 4 kts 274°
2026-04-28 10:34 55.03912 -1.70486 267 ft 4 kts 274°
2026-04-28 10:35 55.03911 -1.70446 267 ft 2 kts 274°
2026-04-28 10:35 55.03913 -1.70404 267 ft 4 kts 236°
2026-04-28 10:35 55.03932 -1.70382 267 ft 3 kts 185°
2026-04-28 10:35 55.03952 -1.70379 267 ft 0 kts 184°
2026-04-28 10:38 55.03950 -1.70379 267 ft 2 kts 184°
2026-04-28 10:38 55.03919 -1.70383 267 ft 4 kts 184°
2026-04-28 10:38 55.03893 -1.70387 267 ft 4 kts 184°
2026-04-28 10:38 55.03833 -1.70395 267 ft 10 kts 186°
2026-04-28 10:39 55.03769 -1.70422 267 ft 9 kts 194°
2026-04-28 10:39 55.03714 -1.70433 267 ft 7 kts 182°
2026-04-28 10:39 55.03666 -1.70438 267 ft 6 kts 183°
2026-04-28 10:39 55.03612 -1.70470 267 ft 14 kts 218°
2026-04-28 10:40 55.03587 -1.70613 267 ft 11 kts 253°
2026-04-28 10:40 55.03527 -1.70646 267 ft 9 kts 182°
2026-04-28 10:40 55.03472 -1.70649 267 ft 7 kts 182°
2026-04-28 10:40 55.03425 -1.70652 268 ft 7 kts 181°
2026-04-28 10:41 55.03381 -1.70643 268 ft 6 kts 168°
2026-04-28 10:41 55.03362 -1.70599 268 ft 6 kts 70°
2026-04-28 10:41 55.03366 -1.70585 268 ft 0 kts 66°
2026-04-28 10:41 55.03457 -1.70242 265 ft 69 kts 65°
2026-04-28 10:42 55.03752 -1.69134 255 ft 129 kts 65°
2026-04-28 10:42 55.04170 -1.67566 690 ft 144 kts 65°
2026-04-28 10:42 55.04597 -1.65983 1461 ft 146 kts 63°
2026-04-28 10:42 55.05050 -1.64252 1854 ft 166 kts 64°
2026-04-28 10:43 55.05559 -1.62319 2232 ft 185 kts 62°
2026-04-28 10:43 55.06133 -1.60177 2623 ft 204 kts 63°
2026-04-28 10:43 55.06719 -1.57903 3434 ft 206 kts 70°
2026-04-28 10:43 55.06757 -1.55455 4204 ft 211 kts 110°
2026-04-28 10:44 55.05802 -1.53459 4792 ft 231 kts 148°
2026-04-28 10:44 55.04172 -1.52651 5171 ft 258 kts 172°
2026-04-28 10:44 55.02330 -1.52562 5878 ft 269 kts 179°
2026-04-28 10:44 55.00438 -1.52719 6691 ft 275 kts 180°
2026-04-28 10:45 54.98514 -1.53082 7459 ft 283 kts 189°
2026-04-28 10:45 54.96624 -1.54223 8231 ft 292 kts 203°
2026-04-28 10:45 54.94851 -1.56009 9027 ft 298 kts 210°
2026-04-28 10:45 54.93068 -1.57890 9814 ft 302 kts 208°
2026-04-28 10:46 54.91244 -1.59772 10586 ft 307 kts 208°
2026-04-28 10:46 54.89353 -1.61699 10939 ft 327 kts 208°